Probability
0 0 0 0 0 0 0 0 0 0 0 0 0 0 0 1 1 1 2 2 3 7 12 16 20 18 11 7 6 7 9 11 10 6 5 5 5 4 3 4 5 6 7 6 5 5 4 4 4
0 0 0 0 0 0 0 0 0 0 0 0 0 0 1 2 3 2 3 4 5 9 12 15 17 15 10 8 7 7 7 8 9 7 5 4 5 4 3 3 3 5 6 7 6 5 5 6 5
0 0 0 0 0 0 0 0 0 0 0 0 0 0 1 3 3 4 6 8 9 10 13 15 16 14 11 10 10 9 6 6 8 8 6 5 4 3 3 1 1 2 4 5 6 6 7 8 7
0 0 0 0 0 0 0 0 0 0 0 0 0 0 1 3 4 5 9 11 11 10 12 16 17 16 15 14 15 13 9 7 7 7 7 6 4 4 3 1 1 1 3 3 4 7 8 8 7
0 0 0 0 0 0 0 0 0 0 0 0 1 2 3 4 4 5 8 11 11 10 12 16 18 18 18 18 18 17 14 11 8 6 6 6 6 6 4 3 2 3 3 3 4 6 7 6 6
0 0 0 0 0 0 0 0 0 0 0 0 1 3 5 4 4 5 8 9 10 11 13 17 19 19 18 19 19 19 18 16 12 9 7 6 6 6 5 4 4 4 3 3 3 3 4 4 5
0 0 0 0 0 0 0 0 0 0 0 0 2 5 6 4 4 9 12 11 10 12 15 17 18 18 18 17 18 19 19 18 16 12 9 7 6 6 5 4 3 3 3 3 3 1 1 1 2
0 0 0 0 0 0 0 0 0 0 0 0 1 4 7 7 11 18 20 15 12 14 16 15 15 16 15 15 17 19 19 18 15 12 9 7 6 6 4 2 2 3 3 3 3 2 1 0 1
0 0 0 0 0 0 0 0 0 0 0 0 1 4 9 13 20 27 28 22 17 15 15 14 14 14 12 12 15 17 16 14 13 11 9 7 6 4 2 1 1 2 3 3 4 3 2 1 1
0 0 0 0 0 0 0 0 0 0 0 0 1 5 13 19 24 30 32 27 20 15 14 14 14 13 11 11 13 15 14 12 12 11 9 7 5 3 1 1 1 2 3 3 3 3 2 1 1
0 0 0 0 0 0 0 0 0 0 0 0 1 6 14 20 24 29 30 26 20 16 15 15 16 16 14 14 14 15 14 13 12 11 9 6 4 3 3 2 2 3 4 4 4 4 3 2 2
0 0 0 0 0 0 0 0 0 0 0 1 1 5 12 18 23 27 26 22 21 20 19 18 18 18 18 17 15 14 14 13 12 10 8 6 5 4 4 3 2 3 5 5 6 6 4 3 2
0 0 0 0 0 0 0 0 0 0 1 2 3 4 9 14 20 24 24 23 24 24 23 20 18 18 17 16 14 13 13 12 10 8 7 7 6 5 4 3 3 3 4 5 7 6 5 3 2
0 0 0 0 0 0 0 0 0 1 2 3 3 4 7 10 14 19 23 26 25 24 24 21 17 15 13 11 11 12 12 11 9 8 7 7 6 5 4 3 3 3 3 4 5 5 5 4 2
0 0 0 0 0 0 0 0 0 1 2 3 3 4 6 8 9 14 22 25 23 21 23 23 17 13 10 9 8 9 10 10 9 8 7 6 6 6 6 5 5 5 4 5 5 6 6 4 3
0 0 0 0 0 0 0 0 0 0 1 2 3 3 6 7 8 12 19 23 22 19 22 23 18 13 11 9 8 9 8 8 7 7 6 6 6 7 8 8 8 8 7 6 6 7 7 6 4
0 0 0 0 0 0 0 1 1 1 0 1 2 2 3 5 8 13 19 23 23 23 23 23 20 16 13 11 12 11 9 7 6 6 5 6 7 9 9 10 10 9 8 7 7 8 9 8 7
0 0 0 0 0 0 0 1 2 1 0 0 1 1 2 4 7 13 19 25 27 27 27 25 22 21 18 16 15 13 10 8 7 6 5 6 8 9 9 9 8 8 7 7 7 9 9 9 9
0 0 0 0 0 0 0 1 1 1 0 0 1 2 2 3 8 13 18 24 28 28 28 26 25 25 24 21 18 14 10 8 7 5 5 6 7 8 8 7 7 6 6 7 8 9 9 9 8
0 0 0 0 0 0 0 0 0 0 0 0 1 2 3 5 10 16 21 23 25 26 25 24 25 27 26 23 20 15 9 7 6 4 4 4 5 6 6 6 6 6 6 7 8 8 8 7 6
0 0 0 0 0 0 0 0 0 0 0 0 0 1 3 5 10 17 23 23 23 24 22 21 23 25 26 24 20 15 9 6 4 4 5 5 4 5 5 4 4 4 5 6 7 6 5 4 4
0 0 0 0 0 0 0 0 0 0 0 0 0 1 3 6 10 15 20 21 20 21 21 20 21 23 24 22 20 16 11 6 4 4 6 5 4 3 3 3 3 3 4 5 5 5 4 4 4
0 0 0 0 0 0 0 0 0 1 0 0 0 1 4 9 13 17 19 18 17 17 19 21 21 22 21 18 17 16 11 6 4 3 3 3 3 1 1 2 3 3 3 4 5 5 5 4 4
0 0 0 0 0 0 0 0 0 0 0 0 1 2 4 9 16 19 19 18 15 15 17 19 20 20 18 15 14 14 11 7 6 4 3 2 1 0 0 2 3 3 3 4 4 4 4 4 4
0 0 0 0 0 0 0 0 0 0 0 0 1 2 3 7 12 17 18 16 13 14 15 16 16 16 16 14 14 15 15 13 11 9 6 3 2 1 2 3 3 3 3 3 4 4 3 4 5
0 0 0 0 0 0 0 0 0 0 0 0 1 1 2 5 9 13 16 14 13 14 14 13 12 14 14 15 16 18 19 17 16 12 8 5 4 4 5 5 4 3 2 3 5 4 4 5 6
0 0 0 0 0 0 0 0 0 0 0 0 0 0 2 4 7 13 15 13 12 13 13 12 12 15 16 17 18 19 20 19 15 12 9 6 6 6 6 5 4 3 3 4 5 5 5 6 6
0 0 0 0 0 0 0 0 0 0 0 0 0 1 3 5 9 14 16 13 10 10 10 12 13 15 18 19 19 19 20 19 15 12 9 8 7 6 5 4 3 3 3 4 4 4 5 6 6
0 0 0 0 0 0 0 0 0 1 1 0 0 2 4 7 10 14 14 12 9 7 7 10 13 14 17 18 18 18 18 18 16 13 10 9 8 7 6 4 3 3 3 3 4 4 4 4 5
0 0 0 0 0 0 0 0 1 2 2 1 0 1 4 7 10 11 10 9 9 7 6 9 12 14 15 16 16 16 15 16 16 14 11 10 10 10 8 6 4 3 3 3 3 3 3 4 4
Wind_Speed
9 8 7 6 8 4 3 5 4 4 4 4 4 2 3 5 6 6 6 7 8 10 12 13 10 8 8 8 7 6 7 8 8 8 8 8 8 8 7 7 8 8 7 8 8 8 7 7 7
5 5 7 7 6 2 5 5 4 5 4 2 2 1 1 4 5 5 5 7 9 10 10 10 11 8 8 8 7 7 7 7 8 7 8 8 8 8 8 7 7 7 7 7 7 7 7 6 6
5 7 7 5 3 2 5 5 5 4 3 1 1 2 2 4 4 4 6 9 9 9 9 11 10 8 8 8 7 7 7 7 7 7 7 8 8 8 7 7 7 7 7 6 7 6 6 5 6
6 6 6 5 1 3 3 4 3 2 2 1 0 2 4 5 3 4 9 10 10 10 10 12 10 9 8 7 7 7 7 7 7 7 7 7 7 7 7 7 7 7 6 6 6 6 6 5 5
6 6 6 4 2 2 1 2 2 1 1 0 1 1 4 5 4 7 9 9 9 9 9 12 10 8 8 7 7 7 7 7 6 6 7 6 6 6 7 6 6 6 6 6 6 6 6 5 5
5 5 6 3 2 2 1 1 1 1 1 1 1 0 4 5 5 7 9 8 9 9 9 11 11 8 7 7 7 7 7 6 6 6 6 6 5 6 6 6 6 6 6 6 6 5 5 5 5
6 5 5 3 2 2 1 1 2 2 1 1 2 1 5 5 5 7 8 8 8 8 8 9 10 9 9 7 7 7 7 6 6 6 6 6 5 5 5 5 5 5 6 6 6 6 5 4 4
5 6 6 4 3 2 2 1 2 4 2 1 2 2 3 5 6 7 7 7 7 7 7 7 8 8 8 8 8 7 7 7 6 6 6 6 6 7 6 6 5 5 5 5 5 6 5 5 5
6 7 5 4 3 1 1 2 2 2 2 2 2 2 4 8 9 8 8 7 7 6 6 6 6 6 6 6 7 7 8 8 8 7 7 6 5 5 6 4 5 4 5 4 4 5 5 6 7
7 7 4 3 3 3 3 4 3 3 4 4 3 2 5 8 9 9 9 8 8 8 7 6 5 5 5 4 5 5 5 6 5 4 5 4 2 2 2 7 5 4 4 4 4 4 6 7 5
7 7 4 3 4 4 5 5 4 6 5 4 3 2 6 8 8 8 8 9 9 8 7 7 6 5 4 3 3 3 2 3 4 4 4 2 2 3 2 3 5 5 5 4 5 6 4 3 2
7 6 6 5 4 6 7 6 6 7 6 5 5 2 6 8 9 8 8 8 8 8 8 6 6 5 4 3 2 3 2 2 2 4 3 3 2 2 2 2 2 2 2 2 2 2 2 2 3
9 7 5 6 6 7 7 8 8 7 6 4 4 3 5 7 8 8 7 7 8 8 8 7 6 5 4 3 2 2 2 2 3 2 3 2 2 2 2 1 1 2 1 3 2 2 2 3 3
5 7 7 7 8 7 8 8 8 7 4 4 4 3 4 5 6 6 7 7 7 7 7 7 7 6 5 4 3 2 2 2 2 2 3 2 2 2 2 3 2 2 2 1 2 2 2 2 1
7 9 9 8 7 6 7 9 8 5 5 5 4 4 4 4 5 6 7 6 7 7 7 6 7 6 5 5 4 3 3 3 3 3 3 3 2 2 3 2 3 2 2 2 2 2 3 3 3
9 10 9 6 6 5 9 8 3 3 5 6 5 4 4 4 5 5 6 6 6 6 6 6 6 7 6 5 4 3 2 3 2 2 3 3 3 3 3 3 2 2 2 2 2 2 2 2 2
10 9 7 5 5 6 9 8 4 4 6 6 5 4 3 3 4 5 7 7 6 6 6 6 6 6 6 6 4 4 3 2 2 2 2 3 3 4 3 2 1 3 2 2 2 1 1 2 2
7 8 7 6 4 7 9 9 6 5 6 6 5 4 3 4 4 4 5 6 6 5 6 6 6 6 6 5 4 3 3 3 2 2 2 2 3 4 3 3 3 3 2 2 1 1 1 1 1
8 9 9 7 5 7 9 9 7 6 7 7 6 4 4 4 4 4 5 5 6 6 6 6 6 5 5 4 4 4 3 3 3 2 3 3 3 3 3 2 3 3 2 2 2 2 2 2 1
10 11 9 6 4 7 8 10 8 7 7 6 6 5 6 6 6 5 5 5 6 6 6 6 6 6 6 4 3 2 3 2 2 2 3 3 3 2 3 2 3 2 2 2 2 2 2 2 2
11 11 9 7 6 8 10 10 7 5 4 4 5 6 6 6 6 6 6 6 6 6 6 5 5 6 5 5 4 4 3 3 3 3 3 3 2 2 1 2 2 2 3 3 3 3 3 2 2
10 8 8 9 9 7 8 8 5 5 5 5 5 6 6 6 6 7 7 6 6 6 6 6 5 5 5 5 4 5 4 3 3 2 2 3 3 2 2 2 1 2 1 2 3 3 3 3 3
8 6 8 10 11 10 8 10 5 4 4 4 4 4 4 5 6 7 7 6 6 5 6 6 6 5 5 4 4 4 3 3 3 3 3 3 3 2 2 2 1 1 1 1 2 2 3 3 3
6 7 9 10 10 11 7 8 5 2 2 2 3 3 3 5 6 7 7 6 6 6 6 6 7 5 5 4 4 4 4 4 4 3 3 3 2 2 2 2 1 1 1 1 2 2 3 2 2
9 8 7 8 8 6 3 7 4 1 0 2 2 3 3 5 6 7 8 8 7 7 7 7 7 6 5 5 4 4 4 4 4 3 3 3 2 2 2 1 2 1 1 1 1 2 2 2 2
9 10 8 7 7 5 4 6 1 2 1 0 1 2 3 5 5 6 6 7 7 7 7 7 7 6 6 5 5 4 4 4 3 3 2 3 2 2 2 2 2 2 2 2 2 2 2 2 2
9 9 8 10 9 9 5 4 4 3 2 2 2 2 3 4 6 6 6 6 6 6 6 7 7 6 6 6 5 4 4 3 3 4 3 2 2 2 3 3 2 3 3 2 2 1 1 1 3
8 7 6 8 7 8 7 6 3 3 2 2 2 3 3 4 5 6 6 6 6 5 6 6 6 6 6 6 5 4 4 4 4 4 4 3 3 2 2 2 3 3 3 3 2 2 1 1 1
9 9 8 8 7 8 7 2 2 1 0 1 2 2 3 4 5 6 6 6 6 5 6 7 6 6 6 6 5 4 4 4 4 3 3 3 3 2 2 2 1 2 2 2 2 2 2 2 2
9 9 9 8 7 8 8 2 3 2 1 0 1 2 2 4 5 6 7 6 6 6 6 7 6 6 6 6 5 5 4 4 3 3 3 3 3 2 2 2 2 2 1 1 2 2 2 2 2
Wind_Direction
206 213 229 239 238 219 93 78 58 57 53 38 24 9 18 11 5 41 85 128 134 137 134 144 144 145 147 149 147 145 142 142 145 149 147 145 143 140 136 135 133 132 132 136 140 139 135 133 132
211 218 234 242 258 183 95 72 57 44 53 55 72 54 35 61 49 77 116 129 140 136 140 142 141 147 146 146 148 148 147 148 150 154 153 150 150 147 145 144 141 137 136 137 140 141 138 137 139
218 237 257 250 264 10 78 73 51 58 85 73 76 52 16 46 74 98 120 141 144 140 141 134 145 146 148 151 154 154 154 155 153 152 157 154 155 156 155 153 151 146 140 138 137 139 134 132 138
227 225 237 248 188 61 40 54 34 50 99 71 344 108 92 54 55 99 131 146 147 149 149 136 149 148 151 153 156 158 159 160 156 153 155 157 159 159 160 158 157 154 148 145 142 141 137 134 137
241 251 235 222 173 95 55 20 351 328 56 61 278 74 102 84 92 120 140 151 153 150 145 138 148 150 153 157 158 159 159 158 155 149 148 153 158 162 162 162 162 159 155 152 147 140 140 143 141
234 242 242 222 161 143 118 9 263 297 18 47 304 313 90 104 130 139 147 156 153 148 144 136 148 154 156 159 163 161 156 152 148 144 146 148 161 163 164 164 166 162 157 159 158 151 149 149 147
256 247 249 248 206 171 101 348 304 317 316 31 319 296 106 119 135 146 149 152 150 149 146 148 155 159 164 162 159 158 156 151 148 143 148 153 161 160 163 165 164 161 163 165 164 164 163 158 158
270 253 232 231 237 191 126 281 301 311 323 17 296 301 81 129 145 148 146 148 146 149 152 155 160 163 172 167 156 158 158 156 156 153 158 165 171 172 173 176 154 156 157 160 160 167 169 171 173
247 244 235 235 248 215 188 261 286 294 251 212 231 349 51 131 150 152 151 152 152 156 159 163 165 165 176 166 152 164 161 157 169 167 163 184 191 173 178 141 130 144 151 151 152 164 173 187 182
236 246 248 286 291 283 279 282 290 257 242 224 203 133 123 150 164 169 167 163 166 167 167 164 161 167 173 163 156 174 172 163 187 165 173 189 162 168 148 125 137 149 161 165 161 184 197 219 192
234 255 267 261 277 282 277 278 277 268 268 272 271 205 166 171 178 183 179 171 170 170 170 167 165 168 169 162 165 164 163 161 177 163 171 165 174 163 170 163 165 175 189 196 174 203 213 211 206
238 250 266 263 271 272 275 275 271 271 281 300 294 261 177 183 186 189 186 176 171 173 174 171 167 168 173 168 165 163 162 166 166 153 179 170 174 175 160 192 174 186 188 189 215 209 201 226 213
234 245 253 261 260 264 264 262 266 269 275 277 265 227 186 192 193 192 184 179 177 178 175 173 175 165 169 170 194 165 163 163 155 162 164 190 186 180 167 173 191 229 200 188 209 206 208 228 215
247 255 253 255 254 250 253 258 253 255 255 254 240 223 200 199 197 186 186 185 182 179 178 173 174 167 173 176 180 172 171 159 165 166 156 188 187 173 178 192 194 224 233 230 227 206 212 228 225
244 246 241 235 242 240 257 248 238 243 240 243 231 218 210 195 187 192 191 190 184 179 176 176 177 172 180 183 181 177 173 169 172 154 158 179 189 180 193 193 203 208 216 212 226 212 213 211 207
229 236 238 214 230 229 250 259 242 236 241 241 233 217 208 195 196 190 183 188 180 179 178 180 183 177 181 186 189 180 173 163 165 164 161 173 178 192 210 202 204 205 225 221 215 231 221 223 227
215 238 250 232 216 232 249 271 263 249 245 242 235 219 206 194 203 184 176 178 176 178 178 185 185 181 184 185 179 172 166 167 168 170 168 164 179 195 216 209 187 215 217 225 238 196 229 221 237
245 257 254 257 229 243 256 270 265 242 246 248 241 225 209 195 196 177 169 170 166 167 174 184 182 178 181 178 170 167 166 168 169 166 161 180 184 189 207 200 192 218 214 221 237 212 215 228 230
263 260 261 262 263 256 260 269 267 253 245 246 239 217 210 192 171 159 164 165 162 165 174 180 179 171 177 175 179 170 170 169 161 165 159 183 188 182 203 210 184 211 201 228 218 218 193 197 195
248 252 254 250 253 264 266 269 262 249 245 250 247 216 200 187 162 156 161 162 164 167 172 176 176 174 182 166 172 170 157 169 159 161 154 171 173 184 194 201 203 190 191 197 197 212 229 185 197
243 252 264 275 272 252 261 253 237 223 227 235 235 226 200 184 170 165 164 165 163 164 173 177 173 171 173 165 167 155 153 168 155 157 154 157 165 173 184 180 206 204 208 177 196 210 217 210 201
246 251 266 265 262 259 258 270 237 217 214 220 227 223 206 187 173 168 168 166 164 163 167 168 162 157 156 168 175 177 175 169 155 159 141 141 142 147 149 159 176 211 208 180 207 194 220 225 213
251 261 256 260 263 265 245 261 250 206 234 224 216 216 203 189 177 172 169 165 160 162 163 159 151 148 156 171 170 180 171 158 146 146 135 141 127 129 130 140 162 199 218 204 227 199 237 235 250
240 242 243 244 247 248 243 256 265 227 261 240 198 190 190 189 173 168 161 153 153 159 157 153 146 147 158 163 162 176 160 157 155 161 149 161 140 142 146 160 157 190 219 198 216 222 219 246 258
224 239 243 234 230 244 230 254 263 40 359 265 215 188 185 185 171 166 165 160 158 159 157 154 151 153 160 158 158 168 163 165 168 170 158 171 154 155 152 164 168 191 205 203 207 215 230 223 231
222 237 252 265 263 267 229 246 232 108 80 210 184 167 169 174 168 167 162 161 158 158 160 159 157 158 160 159 160 165 168 172 162 168 163 160 160 143 146 171 182 191 204 204 202 217 208 215 231
224 231 257 268 266 266 240 224 193 170 157 158 152 152 155 163 167 165 157 157 156 160 161 162 159 156 159 161 162 163 166 167 156 158 172 160 155 153 158 167 183 194 192 200 213 208 217 217 241
245 242 238 250 260 262 251 239 228 181 206 186 181 168 157 155 161 159 156 154 155 161 163 159 155 157 160 160 164 157 158 165 168 173 163 159 160 158 166 172 179 187 187 196 222 212 190 212 231
208 219 236 248 256 267 269 256 57 140 288 210 193 181 167 160 158 154 149 148 150 153 156 154 154 158 162 160 156 152 155 156 165 167 160 156 153 160 176 185 194 199 195 192 208 232 222 227 229
232 233 231 244 247 254 271 274 66 69 65 117 148 151 149 152 147 147 148 147 149 153 154 154 158 163 164 160 155 155 157 155 159 152 148 148 149 165 171 183 194 195 184 193 213 229 232 236 234